ワイズ彗星

P/2010 JC81 ( WISE )

English version
Home page
Updated on April 28, 2012

---------------------------------------------------------------------

・ プロフィール

発見日 2010年5月10日
発見光度
発見者 Wide Field Infrared Survey Explorer (NASA)

・ 写真集

・ 軌道要素

Epoch 2011 Apr. 29.0 TT = JDT 2455680.5
T 2011 Apr. 26.56196 TT                                 MPC
q   1.8107224            (2000.0)            P               Q
n   0.04243267     Peri.   12.57263     +0.75172502     -0.57675766
a   8.1408391      Node    30.76795     +0.53791220     +0.25571967
e   0.7775755      Incl.   38.69007     +0.38152321     +0.77585956
P  23.2
From 444 observations 2010 May 10-2012 Mar. 15, mean residual 0".5.

・ 星図

・ 光度変化

        H = 13.0  G = 0.15                       [    ,-120]  (              〜2010年12月27日)
        m1 = 7.0 + 5 logΔ + 20.0 log r(t - 75)  [-120,  75]  (2010年12月27日〜2011年 7月10日)
        m1 = 8.3 + 5 logΔ + 15.0 log r(t - 75)  [  75,    ]  (2011年 7月10日〜              )

---------------------------------------------------------------------

軌道要素はM.P.E.C. 2012-F11に掲載されたものです。
星図はステラナビゲータ Ver.8 (アストロアーツ) で作成したものです。
光度グラフはComet for Windowsで作成したものです。

---------------------------------------------------------------------

Copyright(C) Seiichi Yoshida (comet@aerith.net). All rights reserved.